[[{"header":{"parameterUnit":"m.s-1","parameterCategory":2,"la1":30.2991,"la2":30.254,"lo1":-89.0895,"lo2":-89.0444,"dx":0.0017,"dy":0.0017,"nx":28,"ny":28,"refTime":"2023-01-14T03:00:00:Z","depth":"0","parameterNumber":2,"parameterNumberName":"U-component_of_CURRENTS"},"data":[0,0,0,0,0,0,0,0,0,0,0,0,0,0,0,0,0,0,0,0,0,0,0,0,0,0,0,0,0,0,0,0,0,0,0,0,0,0,0,0,0,0,0,0,0,0,0,0,0,0,0,0,0,0,0,0,0,0,-0.0271,-0.0271,0,-0.0304,-0.0305,-0.0305,-0.0324,-0.0323,-0.0323,-0.0323,-0.0374,-0.0375,-0.0377,0,0,0,0,0,0,0,0,0,0,0,0,0,-0.0204,-0.0206,-0.0271,-0.0271,-0.0271,-0.0304,-0.0305,-0.0305,-0.0324,-0.0323,-0.0323,-0.0323,-0.0373,-0.0375,-0.0377,0,0,0,0,0,0,0,0,0,0,0,0,0,-0.0238,-0.0206,-0.0271,-0.0282,-0.0283,-0.0304,-0.0305,-0.0306,-0.0324,-0.0323,-0.0323,-0.0323,-0.0373,-0.0375,-0.0377,-0.04,0,0,-0.0385,-0.0386,0,0,0,0,0,0,0,0,-0.0236,-0.0241,-0.028,-0.0281,-0.0282,-0.0306,-0.0299,-0.0337,-0.0324,-0.0312,-0.0323,-0.0323,-0.0351,-0.0355,-0.0367,-0.0402,-0.0404,-0.0385,-0.0386,-0.0387,-0.0388,0,0,0,0,0,0,0,-0.0234,-0.0239,-0.0288,-0.028,-0.0282,-0.0278,-0.0283,-0.0307,-0.0336,-0.0313,-0.0314,-0.0312,-0.0352,-0.0364,-0.0368,-0.0405,-0.0385,-0.0387,-0.0388,-0.0389,-0.0465,-0.0465,0,0,0,0,0,0,-0.0225,-0.0238,-0.0287,-0.0288,-0.0254,-0.0279,-0.0285,-0.0302,-0.0336,-0.0339,-0.0312,-0.0312,-0.036,-0.0365,-0.037,-0.0392,-0.0387,-0.0389,-0.0391,-0.0464,-0.0465,-0.0466,0,0,0,0,0,0,-0.0224,-0.023,-0.0285,-0.0259,-0.0266,-0.0281,-0.0299,-0.0303,-0.0316,-0.0334,-0.0339,-0.0322,-0.036,-0.0366,-0.0397,-0.0394,-0.0391,-0.0393,-0.0464,-0.0464,-0.0465,-0.044,0,0,0,0,0,0,-0.0222,-0.023,-0.0249,-0.026,-0.0267,-0.0298,-0.03,-0.0303,-0.0314,-0.0315,-0.0344,-0.0348,-0.0361,-0.0394,-0.04,-0.0397,-0.0395,-0.0463,-0.0464,-0.0465,-0.044,-0.044,-0.0439,0,0,0,0,0,-0.022,-0.0248,-0.0251,-0.0256,-0.0291,-0.0298,-0.0302,-0.0312,-0.0315,-0.0323,-0.0346,-0.0347,-0.0404,-0.0397,-0.0403,-0.0401,-0.0462,-0.0464,-0.0465,-0.044,-0.044,-0.0439,0,0,0,0,0,0,-0.0241,-0.0253,-0.0256,-0.029,-0.0291,-0.0299,-0.031,-0.0314,-0.0339,-0.034,-0.0361,-0.0367,-0.039,-0.0406,-0.0397,-0.0428,-0.0432,-0.0434,-0.041,-0.041,-0.041,-0.0401,-0.0397,0,0,0,0,0,-0.0251,-0.0281,-0.0274,-0.031,-0.0298,-0.0304,-0.0311,-0.0312,-0.0328,-0.0339,-0.0358,-0.0381,-0.0402,-0.0414,-0.0435,-0.0458,-0.0469,-0.0461,-0.046,-0.046,-0.0458,-0.0496,-0.0499,-0.047,-0.047,-0.047,0,0,-0.0284,-0.0285,-0.0312,-0.0317,-0.0315,-0.03,-0.0308,-0.0313,-0.0312,-0.0341,-0.0358,-0.0382,-0.0409,-0.0429,-0.0441,-0.0442,-0.0468,-0.0462,-0.0461,-0.0459,-0.0498,-0.0501,-0.0503,-0.0471,-0.0471,-0.047,0,0,-0.0331,-0.0342,-0.0362,-0.0347,-0.0331,-0.0316,-0.0313,-0.0312,-0.0319,-0.034,-0.0355,-0.0382,-0.0418,-0.0432,-0.0444,-0.0459,-0.0467,-0.0464,-0.0455,-0.0492,-0.0494,-0.0497,-0.0485,-0.0487,-0.0464,-0.0464,-0.0464,0,-0.0361,-0.038,-0.0371,-0.0357,-0.0344,-0.0316,-0.0307,-0.0304,-0.0322,-0.0329,-0.0342,-0.0397,-0.0417,-0.0438,-0.0442,-0.0457,-0.0467,-0.045,-0.0491,-0.0493,-0.0496,-0.0484,-0.0486,-0.0463,-0.0463,-0.0463,-0.0463,0,-0.0396,-0.0404,-0.0405,-0.0375,-0.0359,-0.0349,-0.0314,-0.0303,-0.0303,-0.0313,-0.0344,-0.0383,-0.0416,-0.0423,-0.0437,-0.0463,-0.0458,-0.0485,-0.0487,-0.0498,-0.0484,-0.0487,-0.0461,-0.0461,-0.0462,-0.0462,0,0,-0.0467,-0.044,-0.0434,-0.042,-0.0361,-0.035,-0.0316,-0.0291,-0.028,-0.0307,-0.0327,-0.0362,-0.0389,-0.0406,-0.0429,-0.0458,-0.0476,-0.0478,-0.0481,-0.0457,-0.0526,-0.0464,-0.0461,-0.0517,-0.0518,-0.0519,-0.0497,0,-0.0489,-0.047,-0.045,-0.0429,-0.0403,-0.0352,-0.0335,-0.0309,-0.0291,-0.03,-0.0333,-0.037,-0.038,-0.0408,-0.0434,-0.0477,-0.0487,-0.0477,-0.0528,-0.0528,-0.0465,-0.0464,-0.0386,-0.0356,-0.05,-0.05,-0.0501,0,-0.0502,-0.0487,-0.0468,-0.0444,-0.0429,-0.0411,-0.0346,-0.0334,-0.0312,-0.0316,-0.0331,-0.036,-0.0396,-0.0421,-0.0471,-0.0467,-0.049,-0.0515,-0.0516,-0.0471,-0.0472,-0.0377,-0.0356,-0.0277,-0.0505,-0.0505,-0.0504,0,-0.051,-0.0494,-0.0481,-0.0465,-0.0428,-0.0414,-0.039,-0.0342,-0.0341,-0.0326,-0.0341,-0.037,-0.041,-0.0448,-0.0475,-0.0488,-0.0527,-0.0554,-0.0506,-0.0501,-0.0449,-0.0437,-0.0353,-0.0589,-0.0589,-0.059,-0.059,0,-0.0511,-0.0501,-0.0489,-0.0472,-0.047,-0.0439,-0.0425,-0.0388,-0.0379,-0.0383,-0.037,-0.0383,-0.0428,-0.0447,-0.0472,-0.0477,-0.0521,-0.0494,-0.0498,-0.0434,-0.0421,-0.0364,-0.0334,-0.0589,-0.0589,-0.0589,-0.0589,0,-0.0498,-0.0496,-0.0481,-0.0464,-0.0468,-0.0456,-0.0452,-0.0442,-0.0424,-0.0423,-0.0434,-0.0417,-0.0414,-0.0425,-0.0469,-0.0469,-0.0443,-0.0477,-0.0365,-0.0356,-0.0237,-0.0208,-0.0177,-0.0206,-0.0422,-0.042,-0.0419,0,-0.0482,-0.0473,-0.0466,-0.0474,-0.0468,-0.0465,-0.0468,-0.0459,-0.0454,-0.0436,-0.0451,-0.0433,-0.0394,-0.0391,-0.0371,-0.0358,-0.037,-0.03,-0.0315,-0.0202,-0.0175,-0.02,-0.0231,-0.0225,-0.0222,-0.022,-0.0218,0,-0.0443,-0.0443,-0.043,-0.0456,-0.0468,-0.048,-0.0487,-0.0497,-0.0486,-0.0472,-0.0441,-0.0404,-0.0347,-0.0253,-0.0212,-0.0227,-0.0232,-0.0252,-0.0185,-0.0043,-0.0018,-0.0057,-0.0236,-0.0198,-0.02,-0.0201,-0.0202,-0.0203,-0.0408,-0.0407,-0.0411,-0.0431,-0.0455,-0.048,-0.0455,-0.0467,-0.0455,-0.0377,-0.0396,-0.0256,-0.0132,-0.004,-0.007,0.0018,-0.0079,0.004,0.0059,0.0018,0.0011,-0.009,-0.0032,-0.0033,-0.0034,-0.0035,-0.0036,0,-0.0385,-0.0394,-0.0396,-0.042,-0.0428,-0.045,-0.0455,-0.0403,-0.0346,-0.0258,-0.0183,0.0045,0.017,0.0238,0.0364,0.0371,0.0252,0.035,0.0339,0.0277,0.0165,0.0198,0.037,0.037,0.037,0.037,0.0369,0.0369,-0.0384,-0.038,-0.0383,-0.0385,-0.0393,-0.0356,-0.0331,-0.0254,-0.0163,0.0047,0.0236,0.0343,0.0528,0.0744,0.0807,0.072,0.0623,0.0618,0.0527,0.0506,0.0478,0.0451,0.049,0.072,0.072,0.0612,0.0612,0.0613]},{"header":{"parameterUnit":"m.s-1","parameterCategory":2,"la1":30.2991,"la2":30.254,"lo1":-89.0895,"lo2":-89.0444,"dx":0.0017,"dy":0.0017,"nx":28,"ny":28,"refTime":"2023-01-14T03:00:00:Z","depth":"0","parameterNumber":3,"parameterNumberName":"V-component_of_CURRENTS"},"data":[0,0,0,0,0,0,0,0,0,0,0,0,0,0,0,0,0,0,0,0,0,0,0,0,0,0,0,0,0,0,0,0,0,0,0,0,0,0,0,0,0,0,0,0,0,0,0,0,0,0,0,0,0,0,0,0,0,0,-0.1669,-0.1672,0,-0.1782,-0.1782,-0.1781,-0.1797,-0.1798,-0.18,-0.1801,-0.1828,-0.1827,-0.1827,0,0,0,0,0,0,0,0,0,0,0,0,0,-0.1599,-0.1597,-0.1669,-0.1672,-0.1676,-0.1783,-0.1782,-0.1781,-0.1797,-0.1798,-0.18,-0.1801,-0.1828,-0.1827,-0.1827,0,0,0,0,0,0,0,0,0,0,0,0,0,-0.1639,-0.1596,-0.1668,-0.1715,-0.1722,-0.1783,-0.1782,-0.1781,-0.1797,-0.1798,-0.18,-0.1802,-0.1828,-0.1827,-0.1827,-0.1787,0,0,-0.1825,-0.1825,0,0,0,0,0,0,0,0,-0.1636,-0.1638,-0.1704,-0.1712,-0.172,-0.1799,-0.1769,-0.1787,-0.1796,-0.1742,-0.1801,-0.1803,-0.1825,-0.1824,-0.1808,-0.1789,-0.179,-0.1825,-0.1824,-0.1824,-0.1824,0,0,0,0,0,0,0,-0.1633,-0.1634,-0.1689,-0.1709,-0.1719,-0.1778,-0.1781,-0.1771,-0.1751,-0.1747,-0.1755,-0.1806,-0.1825,-0.1808,-0.1809,-0.179,-0.1825,-0.1824,-0.1824,-0.1824,-0.1755,-0.1754,0,0,0,0,0,0,-0.1659,-0.163,-0.1686,-0.1695,-0.171,-0.1779,-0.1782,-0.1752,-0.1754,-0.1764,-0.1804,-0.1807,-0.1809,-0.181,-0.181,-0.1784,-0.1824,-0.1824,-0.1823,-0.1757,-0.1755,-0.1753,0,0,0,0,0,0,-0.1655,-0.1659,-0.1682,-0.169,-0.1701,-0.178,-0.1745,-0.1754,-0.1748,-0.1803,-0.1806,-0.1795,-0.181,-0.1811,-0.1799,-0.1785,-0.1823,-0.1823,-0.1758,-0.1756,-0.1754,-0.172,0,0,0,0,0,0,-0.1651,-0.1654,-0.162,-0.1689,-0.1702,-0.1699,-0.1747,-0.1756,-0.1789,-0.1791,-0.1795,-0.1799,-0.1812,-0.18,-0.1798,-0.1785,-0.1822,-0.176,-0.1757,-0.1755,-0.1723,-0.1716,-0.1711,0,0,0,0,0,-0.1646,-0.1582,-0.1614,-0.1624,-0.1655,-0.17,-0.1706,-0.1758,-0.1786,-0.1758,-0.1777,-0.1799,-0.1782,-0.1797,-0.1796,-0.1783,-0.1762,-0.1758,-0.1755,-0.1725,-0.1718,-0.1711,0,0,0,0,0,0,-0.1558,-0.1583,-0.1619,-0.1573,-0.1638,-0.1712,-0.1692,-0.1752,-0.1741,-0.1727,-0.1778,-0.1781,-0.1764,-0.1771,-0.1788,-0.1753,-0.1776,-0.1772,-0.1753,-0.1746,-0.1741,-0.1735,-0.1822,0,0,0,0,0,-0.1524,-0.1483,-0.1549,-0.1539,-0.153,-0.1612,-0.1635,-0.1674,-0.1705,-0.1701,-0.1741,-0.175,-0.1744,-0.1746,-0.1737,-0.1716,-0.1727,-0.1705,-0.17,-0.1695,-0.1688,-0.1712,-0.1708,-0.1743,-0.1743,-0.1743,0,0,-0.1547,-0.1526,-0.1537,-0.1521,-0.1546,-0.1544,-0.1618,-0.1629,-0.1646,-0.1703,-0.1702,-0.1727,-0.1732,-0.1711,-0.1704,-0.172,-0.1683,-0.1691,-0.1687,-0.1683,-0.1708,-0.1705,-0.1703,-0.174,-0.1741,-0.1741,0,0,-0.1542,-0.1477,-0.1441,-0.1446,-0.1469,-0.1486,-0.1493,-0.1552,-0.156,-0.1577,-0.1624,-0.1649,-0.1648,-0.1668,-0.167,-0.1624,-0.1649,-0.1619,-0.1592,-0.1615,-0.1613,-0.1611,-0.1591,-0.1588,-0.1621,-0.162,-0.162,0,-0.1551,-0.1505,-0.1459,-0.1409,-0.1423,-0.1456,-0.1449,-0.1443,-0.1523,-0.1533,-0.1561,-0.1604,-0.1625,-0.162,-0.1613,-0.1614,-0.1617,-0.1622,-0.161,-0.1609,-0.1608,-0.1588,-0.1586,-0.1618,-0.1619,-0.1619,-0.1619,0,-0.1555,-0.1495,-0.1457,-0.1391,-0.1374,-0.1368,-0.1364,-0.1357,-0.1384,-0.1429,-0.1442,-0.1487,-0.1529,-0.1537,-0.1561,-0.1567,-0.1565,-0.16,-0.1634,-0.1603,-0.1583,-0.1581,-0.1615,-0.1616,-0.1617,-0.1617,0,0,-0.1593,-0.1489,-0.1471,-0.143,-0.1356,-0.1343,-0.1297,-0.129,-0.1291,-0.1331,-0.1361,-0.1377,-0.1438,-0.1445,-0.1498,-0.1525,-0.1526,-0.1561,-0.1563,-0.155,-0.1544,-0.1485,-0.1477,-0.1569,-0.1569,-0.1569,-0.1522,0,-0.1613,-0.152,-0.1472,-0.1412,-0.1338,-0.1312,-0.1268,-0.1251,-0.1265,-0.1285,-0.1309,-0.1343,-0.1385,-0.1431,-0.1456,-0.1523,-0.1523,-0.1533,-0.1566,-0.1566,-0.1528,-0.1474,-0.1418,-0.1368,-0.152,-0.152,-0.152,0,-0.1601,-0.1521,-0.1451,-0.1353,-0.1322,-0.13,-0.1225,-0.1212,-0.1196,-0.1213,-0.1249,-0.1295,-0.1333,-0.1385,-0.144,-0.1446,-0.148,-0.1519,-0.1519,-0.1477,-0.1504,-0.1428,-0.1359,-0.1415,-0.1517,-0.1517,-0.1518,0,-0.1557,-0.1493,-0.1427,-0.1398,-0.1292,-0.1264,-0.1233,-0.1191,-0.1166,-0.1192,-0.1201,-0.125,-0.1286,-0.1338,-0.1406,-0.1436,-0.1451,-0.1508,-0.1465,-0.1461,-0.1424,-0.1415,-0.1423,-0.1523,-0.1523,-0.1523,-0.1523,0,-0.151,-0.1443,-0.1411,-0.1337,-0.1269,-0.1223,-0.1171,-0.1149,-0.1141,-0.1103,-0.1173,-0.1175,-0.1284,-0.131,-0.1371,-0.1386,-0.1416,-0.1435,-0.1445,-0.1404,-0.1394,-0.1452,-0.1517,-0.1521,-0.1521,-0.1522,-0.1522,0,-0.1388,-0.1385,-0.1276,-0.1213,-0.1205,-0.1135,-0.1105,-0.1085,-0.1086,-0.1053,-0.1058,-0.1113,-0.1152,-0.122,-0.1305,-0.1331,-0.1389,-0.1361,-0.1277,-0.1277,-0.1304,-0.1369,-0.1396,-0.1434,-0.1315,-0.1314,-0.1312,0,-0.1287,-0.1233,-0.1161,-0.1132,-0.1097,-0.1047,-0.101,-0.1018,-0.1013,-0.1002,-0.0979,-0.102,-0.1017,-0.1083,-0.1164,-0.1211,-0.1309,-0.1185,-0.124,-0.1269,-0.1351,-0.1415,-0.1452,-0.1166,-0.1163,-0.1161,-0.116,0,-0.11,-0.1102,-0.1032,-0.0985,-0.0954,-0.0913,-0.0892,-0.0866,-0.0871,-0.0842,-0.081,-0.0813,-0.0896,-0.093,-0.1002,-0.105,-0.1225,-0.1143,-0.1215,-0.1252,-0.1283,-0.1336,-0.1211,-0.1141,-0.1143,-0.1144,-0.1145,-0.1146,-0.0982,-0.0927,-0.09,-0.085,-0.0824,-0.0772,-0.0685,-0.0694,-0.0621,-0.0519,-0.0611,-0.0525,-0.0682,-0.0788,-0.089,-0.1021,-0.1108,-0.106,-0.1137,-0.1199,-0.1236,-0.1036,-0.096,-0.0961,-0.0962,-0.0962,-0.0963,0,-0.0871,-0.0861,-0.0796,-0.0718,-0.0644,-0.067,-0.0597,-0.0493,-0.036,-0.0309,-0.0244,-0.0239,-0.0392,-0.0601,-0.0839,-0.0978,-0.1087,-0.1063,-0.1163,-0.1205,-0.1046,-0.1039,-0.0926,-0.0926,-0.0926,-0.0926,-0.0926,-0.0926,-0.0838,-0.0781,-0.0752,-0.0587,-0.0516,-0.0363,-0.0281,-0.0147,-0.0067,0.0106,0.0189,0.0187,-0.0025,-0.0578,-0.095,-0.1049,-0.1211,-0.1212,-0.1331,-0.1237,-0.1244,-0.125,-0.1257,-0.1192,-0.1192,-0.1452,-0.1454,-0.1456]}],[{"header":{"parameterUnit":"m.s-1","parameterCategory":2,"la1":30.2991,"la2":30.254,"lo1":-89.0895,"lo2":-89.0444,"dx":0.0017,"dy":0.0017,"nx":28,"ny":28,"refTime":"2023-01-14T03:00:00:Z","depth":"2","parameterNumber":2,"parameterNumberName":"U-component_of_CURRENTS"},"data":[0,0,0,0,0,0,0,0,0,0,0,0,0,0,0,0,0,0,0,0,0,0,0,0,0,0,0,0,0,0,0,0,0,0,0,0,0,0,0,0,0,0,0,0,0,0,0,0,0,0,0,0,0,0,0,0,0,0,-0.0003,-0.0005,0,0.0017,0.0019,0.0021,0.0178,0.0179,0.0181,0.0183,0.0185,0.0183,0.0182,0,0,0,0,0,0,0,0,0,0,0,0,0,0.0184,0.0181,-0.0003,-0.0005,-0.0007,0.0016,0.0019,0.0021,0.0177,0.018,0.0182,0.0184,0.0185,0.0183,0.0182,0,0,0,0,0,0,0,0,0,0,0,0,0,0.0165,0.0181,-0.0003,0.0057,0.0061,0.0016,0.0019,0.0022,0.0177,0.018,0.0182,0.0185,0.0186,0.0184,0.0181,0.0113,0,0,0.0174,0.0173,0,0,0,0,0,0,0,0,0.0166,0.0161,0.005,0.0052,0.0056,0.0077,0.0084,0.0044,0.0176,0.0157,0.0183,0.0186,0.013,0.0132,0.0163,0.0114,0.0114,0.0174,0.0172,0.0171,0.0171,0,0,0,0,0,0,0,0.0167,0.0161,0.0028,0.0047,0.0051,0.0112,0.0114,0.008,0.0146,0.0159,0.0165,0.0129,0.0136,0.0166,0.0164,0.0114,0.0174,0.0172,0.017,0.0169,-0.0007,-0.001,0,0,0,0,0,0,0.0109,0.0161,0.0027,0.0026,0.0093,0.0104,0.0108,0.0087,0.0147,0.0152,0.0127,0.0136,0.0168,0.0167,0.0164,0.0118,0.0171,0.0169,0.0168,-0.0004,-0.0008,-0.0011,0,0,0,0,0,0,0.0114,0.0098,0.0026,0.0076,0.0068,0.0095,0.0072,0.0085,0.0113,0.0118,0.0129,0.0138,0.017,0.0168,0.0147,0.0118,0.0168,0.0166,0.0,-0.0005,-0.0009,0.0004,0,0,0,0,0,0,0.012,0.01,0.0061,0.0072,0.0062,0.0016,0.0067,0.0083,0.0075,0.0089,0.0129,0.0134,0.0172,0.015,0.0145,0.0115,0.0164,0.0004,-0.0002,-0.0008,0.0008,0.0,-0.0006,0,0,0,0,0,0.0127,0.0079,0.006,0.0041,0.0009,0.0013,0.0019,0.0062,0.0072,0.0097,0.0114,0.0133,0.0107,0.0147,0.014,0.011,0.0007,-0.0,-0.0007,0.0011,0.0002,-0.0006,0,0,0,0,0,0,0.0144,0.0087,0.0069,0.0004,0.0002,0.0032,0.0028,0.0039,0.0074,0.0077,0.0107,0.0112,0.0085,0.0068,0.0112,0.0031,0.0051,0.0042,0.0066,0.0058,0.0051,0.0115,0.0162,0,0,0,0,0,0.0112,0.0051,0.0035,-0.003,-0.0023,-0.0009,-0.0013,0.0013,0.0029,0.0051,0.008,0.0071,0.0044,0.0033,0.0027,-0.0026,-0.0011,-0.0062,-0.0069,-0.0074,-0.0033,-0.0012,-0.0009,-0.0035,-0.0035,-0.0035,0,0,0.008,0.0039,-0.0001,-0.0035,-0.0027,-0.0017,0.0006,-0.0001,0.0005,0.0032,0.0066,0.0057,0.0024,0.0002,-0.0019,-0.0012,-0.0082,-0.0083,-0.0087,-0.0042,-0.0018,-0.0015,-0.0011,-0.004,-0.0039,-0.0038,0,0,0.0021,-0.0022,-0.0064,-0.0056,-0.0076,-0.0054,-0.0066,-0.0029,0.0003,-0.0011,0.0013,-0.0003,-0.0043,-0.0033,-0.0057,-0.0128,-0.011,-0.017,-0.0151,-0.0132,-0.0126,-0.0122,-0.0169,-0.0168,-0.0181,-0.0181,-0.0181,0,-0.0017,-0.0061,-0.0074,-0.008,-0.0084,-0.0073,-0.0069,-0.0049,-0.0024,-0.001,-0.0004,-0.0031,-0.0053,-0.0084,-0.0092,-0.0135,-0.0136,-0.0104,-0.0131,-0.0125,-0.012,-0.0169,-0.0168,-0.0181,-0.0181,-0.0181,-0.0181,0,-0.0067,-0.0098,-0.0109,-0.0119,-0.0115,-0.0115,-0.0093,-0.006,-0.0053,-0.0044,-0.005,-0.0056,-0.007,-0.0106,-0.0116,-0.0118,-0.0139,-0.0127,-0.0084,-0.0115,-0.0169,-0.0167,-0.0181,-0.0181,-0.0181,-0.0181,0,0,-0.013,-0.0149,-0.014,-0.0155,-0.0127,-0.0132,-0.0101,-0.0074,-0.0066,-0.0048,-0.0053,-0.0073,-0.0067,-0.0092,-0.0112,-0.0087,-0.0089,-0.0086,-0.0085,-0.0089,-0.0083,-0.0044,-0.004,-0.006,-0.0058,-0.0057,-0.0157,0,-0.0151,-0.0174,-0.0167,-0.0183,-0.0178,-0.0139,-0.0127,-0.0109,-0.0079,-0.0073,-0.0084,-0.0096,-0.0077,-0.0089,-0.0067,-0.0074,-0.0074,-0.0065,-0.0089,-0.0091,-0.0012,-0.0031,0.0025,-0.005,-0.0156,-0.0156,-0.0156,0,-0.0159,-0.0178,-0.0195,-0.0215,-0.0208,-0.0212,-0.0163,-0.0161,-0.0134,-0.0124,-0.0101,-0.0092,-0.0083,-0.0068,-0.0046,-0.0036,-0.0052,-0.0049,-0.0053,0.0004,-0.0044,-0.0029,-0.0044,-0.0153,-0.0154,-0.0154,-0.0154,0,-0.018,-0.0185,-0.0212,-0.0213,-0.023,-0.0219,-0.0214,-0.0166,-0.0163,-0.0137,-0.0137,-0.0107,-0.0128,-0.008,-0.0058,-0.0047,-0.0043,-0.005,-0.0038,-0.0041,0.0017,0.002,-0.0024,-0.0024,-0.0023,-0.0023,-0.0023,0,-0.0203,-0.0211,-0.0226,-0.0256,-0.0273,-0.0267,-0.0276,-0.0242,-0.0229,-0.0242,-0.0181,-0.0165,-0.0112,-0.0094,-0.0073,-0.0049,-0.0063,-0.0014,-0.0035,0.0009,0.0012,-0.0051,-0.0053,-0.0027,-0.0026,-0.0025,-0.0025,0,-0.0227,-0.0237,-0.0271,-0.0294,-0.0302,-0.0311,-0.0321,-0.0317,-0.0293,-0.0298,-0.0286,-0.0228,-0.0171,-0.0131,-0.0095,-0.0082,-0.005,-0.0049,-0.0027,-0.0039,-0.0076,-0.0077,-0.0049,-0.0047,-0.0046,-0.0046,-0.0045,0,-0.0257,-0.0283,-0.0312,-0.0329,-0.0342,-0.0357,-0.0369,-0.0352,-0.0338,-0.0314,-0.0326,-0.026,-0.0195,-0.015,-0.0069,-0.0031,-0.0054,0.0009,0.0071,-0.0041,-0.0066,-0.0068,-0.0071,0.0091,0.0093,0.0094,0.0095,0,-0.0304,-0.0304,-0.0324,-0.0367,-0.0384,-0.0403,-0.0408,-0.0404,-0.0386,-0.0362,-0.0308,-0.0241,-0.0172,-0.0044,0.0011,0.0035,0.0025,0.0041,-0.0067,0.0113,0.0091,0.0066,0.0059,0.0108,0.0107,0.0106,0.0105,0.0105,-0.0314,-0.0321,-0.0354,-0.038,-0.0401,-0.0413,-0.0392,-0.0385,-0.0358,-0.0263,-0.0269,-0.0134,-0.0082,0.0098,0.0109,0.0131,0.0116,0.013,0.0125,0.0118,0.0178,0.0163,0.0198,0.0197,0.0197,0.0196,0.0196,0,-0.033,-0.0335,-0.0375,-0.0386,-0.0389,-0.0408,-0.0395,-0.0334,-0.0256,-0.0167,-0.0081,0.0025,0.0136,0.0181,0.0262,0.0264,0.0244,0.0241,0.0233,0.0222,0.0212,0.0276,0.0321,0.0321,0.0321,0.0321,0,0,-0.0325,-0.0353,-0.0372,-0.0363,-0.0364,-0.0309,-0.027,-0.018,-0.0081,0.0045,0.0158,0.0224,0.025,0.031,0.0304,0.0345,0.0278,0.0333,0.0243,0.0229,0.0219,0.0168,0.0258,0,0,0,0,0]},{"header":{"parameterUnit":"m.s-1","parameterCategory":2,"la1":30.2991,"la2":30.254,"lo1":-89.0895,"lo2":-89.0444,"dx":0.0017,"dy":0.0017,"nx":28,"ny":28,"refTime":"2023-01-14T03:00:00:Z","depth":"2","parameterNumber":3,"parameterNumberName":"V-component_of_CURRENTS"},"data":[0,0,0,0,0,0,0,0,0,0,0,0,0,0,0,0,0,0,0,0,0,0,0,0,0,0,0,0,0,0,0,0,0,0,0,0,0,0,0,0,0,0,0,0,0,0,0,0,0,0,0,0,0,0,0,0,0,0,-0.0192,-0.0193,0,0.0072,0.0079,0.0086,0.0362,0.0361,0.0361,0.036,0.0255,0.0252,0.025,0,0,0,0,0,0,0,0,0,0,0,0,0,0.033,0.0318,-0.0192,-0.0193,-0.0194,0.0071,0.0079,0.0088,0.0362,0.0361,0.0361,0.036,0.0255,0.0253,0.025,0,0,0,0,0,0,0,0,0,0,0,0,0,0.0341,0.0314,-0.0192,-0.0059,-0.0048,0.007,0.008,0.009,0.0362,0.0361,0.036,0.036,0.0256,0.0253,0.0249,0.024,0,0,0.0238,0.0237,0,0,0,0,0,0,0,0,0.034,0.0328,-0.0078,-0.0069,-0.0057,0.0143,0.0223,0.0105,0.0362,0.0255,0.036,0.0359,0.0152,0.0158,0.0281,0.0235,0.0231,0.0238,0.0236,0.0234,0.0233,0,0,0,0,0,0,0,0.0338,0.0322,-0.004,-0.008,-0.0067,0.0254,0.0253,0.0212,0.0233,0.0265,0.0273,0.0229,0.0163,0.0284,0.0278,0.0229,0.0238,0.0235,0.0233,0.0231,-0.0087,-0.0093,0,0,0,0,0,0,0.0168,0.0314,-0.0049,-0.0037,0.0092,0.0238,0.024,0.0117,0.0242,0.025,0.0229,0.024,0.0291,0.0282,0.0274,0.0148,0.0234,0.0231,0.0229,-0.008,-0.0088,-0.0095,0,0,0,0,0,0,0.0177,0.013,-0.0061,0.0117,0.0108,0.0219,0.0087,0.0122,0.0182,0.0211,0.0222,0.0238,0.029,0.0279,0.0174,0.0148,0.0229,0.0226,-0.0073,-0.0083,-0.0091,-0.0031,0,0,0,0,0,0,0.019,0.0131,0.0027,0.0099,0.0089,-0.0046,0.0084,0.0126,0.0136,0.0154,0.0221,0.0218,0.0289,0.0179,0.0171,0.0145,0.0223,-0.0065,-0.0077,-0.0088,-0.0025,-0.0037,-0.0048,0,0,0,0,0,0.0207,0.0117,0.0018,-0.0025,-0.0077,-0.0054,-0.0022,0.0096,0.0134,0.0157,0.0176,0.0213,0.0097,0.0172,0.0164,0.0136,-0.0059,-0.0074,-0.0088,-0.002,-0.0035,-0.0047,0,0,0,0,0,0,0.0321,0.013,0.0029,-0.0122,-0.0158,-0.0027,0.0016,0.004,0.0103,0.0097,0.0154,0.0151,0.0079,0.0031,0.0112,-0.0013,0.0013,-0.0003,0.0067,0.0053,0.0042,0.0105,0.022,0,0,0,0,0,0.0249,0.0088,-0.001,-0.0156,-0.0167,-0.0111,-0.0083,-0.0052,-0.0019,0.002,0.011,0.0091,0.0027,-0.0028,-0.0021,-0.0125,-0.0122,-0.0173,-0.0184,-0.0192,-0.0163,-0.0113,-0.011,-0.0141,-0.0141,-0.0141,0,0,0.0289,0.0101,0.0047,-0.0151,-0.0131,-0.0134,-0.0078,-0.0085,-0.0082,-0.0029,0.0089,0.0089,-0.0008,-0.0041,-0.0093,-0.0101,-0.0223,-0.021,-0.0214,-0.018,-0.0126,-0.0121,-0.0116,-0.0151,-0.0149,-0.0148,0,0,0.0299,0.0073,0.0001,-0.0077,-0.0205,-0.0178,-0.0232,-0.0127,-0.0069,-0.0094,-0.0019,-0.0059,-0.0109,-0.0101,-0.0165,-0.0292,-0.0245,-0.033,-0.0355,-0.0308,-0.0299,-0.0292,-0.0407,-0.041,-0.0375,-0.0375,-0.0375,0,0.0313,0.016,0.0007,-0.0096,-0.0126,-0.0229,-0.0214,-0.0212,-0.0137,-0.0085,-0.0102,-0.0081,-0.0139,-0.0224,-0.0242,-0.0299,-0.0299,-0.0265,-0.0303,-0.0295,-0.0288,-0.0406,-0.0409,-0.0374,-0.0374,-0.0374,-0.0374,0,0.0309,0.0176,0.0141,-0.0068,-0.0106,-0.0139,-0.0217,-0.021,-0.0207,-0.0143,-0.0154,-0.0189,-0.0192,-0.0243,-0.0292,-0.0294,-0.0326,-0.0266,-0.0218,-0.0277,-0.0406,-0.041,-0.0372,-0.0373,-0.0373,-0.0373,0,0,0.0335,0.0183,0.0153,0.0095,-0.0095,-0.012,-0.0191,-0.0196,-0.0227,-0.0187,-0.0161,-0.0242,-0.0192,-0.0267,-0.0304,-0.0292,-0.0302,-0.026,-0.0258,-0.0292,-0.0281,-0.0231,-0.0232,-0.0181,-0.0179,-0.0177,-0.043,0,0.0378,0.0277,0.0192,0.0136,0.0117,-0.0026,-0.0088,-0.0156,-0.0183,-0.0177,-0.0262,-0.0242,-0.0249,-0.0266,-0.026,-0.0248,-0.0289,-0.0246,-0.0292,-0.0299,-0.0168,-0.0224,-0.0135,-0.0338,-0.0434,-0.0435,-0.0435,0,0.0373,0.0308,0.0281,0.0208,0.0194,0.011,-0.001,-0.006,-0.0166,-0.0188,-0.0205,-0.0196,-0.0239,-0.0238,-0.0261,-0.0208,-0.0249,-0.026,-0.0268,-0.0214,-0.0247,-0.0283,-0.0342,-0.0442,-0.0441,-0.0441,-0.044,0,0.0375,0.0369,0.0346,0.0288,0.0164,0.0114,0.0078,-0.0039,-0.0076,-0.0157,-0.0185,-0.0196,-0.0267,-0.0228,-0.0259,-0.0229,-0.0287,-0.027,-0.0304,-0.0311,-0.0245,-0.0244,-0.0276,-0.0276,-0.0276,-0.0275,-0.0274,0,0.034,0.0334,0.0336,0.0217,0.0225,0.0147,0.0058,-0.0005,-0.0109,-0.0117,-0.0162,-0.0209,-0.0226,-0.0251,-0.0269,-0.0309,-0.0308,-0.0308,-0.0325,-0.0248,-0.0244,-0.0308,-0.0308,-0.0285,-0.0282,-0.0281,-0.0279,0,0.0261,0.0242,0.0182,0.0128,0.0133,0.01,0.0039,-0.0006,-0.0095,-0.0145,-0.0141,-0.0227,-0.024,-0.0288,-0.0313,-0.0347,-0.0359,-0.0381,-0.0371,-0.0376,-0.0458,-0.0454,-0.0481,-0.0481,-0.048,-0.0479,-0.0479,0,0.0168,0.0116,0.0065,0.0048,0.0005,-0.001,-0.0048,-0.0068,-0.0072,-0.012,-0.0123,-0.0163,-0.0188,-0.031,-0.0322,-0.0397,-0.0397,-0.0379,-0.0274,-0.0441,-0.0457,-0.0455,-0.0452,-0.0277,-0.0274,-0.0273,-0.0271,0,0.0033,-0.0014,-0.0021,-0.0067,-0.0095,-0.0066,-0.0052,-0.0057,-0.0049,-0.0067,-0.0056,-0.0054,-0.0168,-0.0195,-0.0297,-0.0307,-0.0338,-0.0346,-0.0476,-0.0186,-0.025,-0.0265,-0.0269,-0.0256,-0.0258,-0.0259,-0.026,-0.026,-0.0042,-0.0038,-0.0093,-0.0093,-0.0096,-0.0082,-0.0061,-0.0013,-0.0002,0.0056,0.003,0.0024,-0.0038,-0.0139,-0.0205,-0.0275,-0.0281,-0.0266,-0.0271,-0.0277,-0.0155,-0.0205,-0.0196,-0.0197,-0.0198,-0.0199,-0.0199,0,-0.0059,-0.0039,-0.0085,-0.0084,-0.0075,-0.0089,-0.0024,0.0028,0.0098,0.0132,0.0152,0.0113,0.0061,-0.0038,-0.0112,-0.0166,-0.0178,-0.0182,-0.0168,-0.0178,-0.0189,-0.0062,-0.008,-0.0081,-0.0082,-0.0083,0,0,-0.0048,-0.0056,-0.0067,-0.0058,-0.0053,0.0018,0.0063,0.0149,0.0202,0.0222,0.0221,0.0219,0.0122,0.0076,0.0013,-0.0034,-0.01,-0.0039,-0.0107,-0.0085,-0.0096,-0.0186,0.0006,0,0,0,0,0]}],[{"header":{"parameterUnit":"m.s-1","parameterCategory":2,"la1":30.2991,"la2":30.254,"lo1":-89.0895,"lo2":-89.0444,"dx":0.0017,"dy":0.0017,"nx":28,"ny":28,"refTime":"2023-01-14T03:00:00:Z","depth":"4","parameterNumber":2,"parameterNumberName":"U-component_of_CURRENTS"},"data":[0,0,0,0,0,0,0,0,0,0,0,0,0,0,0,0,0,0,0,0,0,0,0,0,0,0,0,0,0,0,0,0,0,0,0,0,0,0,0,0,0,0,0,0,0,0,0,0,0,0,0,0,0,0,0,0,0,0,0.0184,0.0185,0,0.0204,0.0204,0.0204,0.0228,0.0229,0.0229,0.023,0.0223,0.0223,0.0222,0,0,0,0,0,0,0,0,0,0,0,0,0,0.0064,0.0066,0.0184,0.0185,0.0185,0.0204,0.0204,0.0204,0.0228,0.0229,0.0229,0.023,0.0224,0.0223,0.0222,0,0,0,0,0,0,0,0,0,0,0,0,0,0.01,0.0067,0.0184,0.0203,0.0205,0.0204,0.0204,0.0204,0.0227,0.0229,0.023,0.0231,0.0224,0.0223,0.0222,0.0191,0,0,0.0218,0.0217,0,0,0,0,0,0,0,0,0.0098,0.0104,0.0199,0.0201,0.0204,0.0218,0.0159,0.02,0.0227,0.0215,0.023,0.0231,0.0221,0.022,0.0216,0.0191,0.0191,0.0217,0.0217,0.0216,0.0216,0,0,0,0,0,0,0,0.0095,0.0102,0.0188,0.02,0.0203,0.0175,0.0182,0.0166,0.0208,0.0216,0.0219,0.0227,0.0222,0.0217,0.0216,0.019,0.0217,0.0216,0.0216,0.0215,0.0186,0.0186,0,0,0,0,0,0,0.0106,0.0101,0.0187,0.0189,0.0157,0.0177,0.0184,0.0209,0.0209,0.0211,0.0226,0.0228,0.0219,0.0217,0.0216,0.0197,0.0216,0.0215,0.0214,0.0186,0.0186,0.0186,0,0,0,0,0,0,0.0103,0.0114,0.0187,0.0147,0.0155,0.0179,0.0206,0.0209,0.0222,0.0217,0.0219,0.0238,0.022,0.0218,0.02,0.0196,0.0214,0.0213,0.0186,0.0186,0.0186,0.0147,0,0,0,0,0,0,0.01,0.0113,0.012,0.0149,0.0158,0.0194,0.0205,0.0209,0.0226,0.0229,0.0227,0.0227,0.022,0.0202,0.0199,0.0195,0.0212,0.0186,0.0186,0.0186,0.0148,0.0146,0.0144,0,0,0,0,0,0.0096,0.0106,0.0121,0.0131,0.0173,0.0194,0.0195,0.0212,0.0226,0.0227,0.0218,0.0228,0.0201,0.02,0.0196,0.0192,0.0186,0.0186,0.0186,0.0149,0.0146,0.0144,0,0,0,0,0,0,0.0056,0.0111,0.0128,0.0154,0.0177,0.02,0.0194,0.0218,0.0213,0.0213,0.0213,0.0211,0.02,0.0201,0.02,0.0188,0.0201,0.0201,0.0175,0.0172,0.0169,0.0192,0.0211,0,0,0,0,0,0.0052,0.0078,0.012,0.014,0.0147,0.0173,0.018,0.0201,0.0208,0.0209,0.0209,0.0206,0.0194,0.0187,0.0181,0.0161,0.0193,0.0163,0.016,0.0158,0.0176,0.0202,0.0204,0.0187,0.0187,0.0187,0,0,0.0043,0.0075,0.009,0.0133,0.0143,0.0152,0.0179,0.0196,0.0204,0.0205,0.0199,0.0196,0.0189,0.0169,0.0165,0.0169,0.0182,0.0158,0.0156,0.0176,0.0202,0.0204,0.0206,0.0187,0.0187,0.0187,0,0,0.0034,0.0063,0.0078,0.0096,0.0126,0.0138,0.0149,0.0179,0.0187,0.0184,0.0186,0.0178,0.0167,0.0155,0.0148,0.0129,0.0171,0.0139,0.0136,0.016,0.0162,0.0164,0.0213,0.0219,0.0133,0.0133,0.0133,0,0.0016,0.0051,0.008,0.0095,0.0108,0.0134,0.0146,0.0149,0.0172,0.0172,0.0182,0.017,0.0159,0.0135,0.0133,0.0122,0.0161,0.0141,0.0157,0.0159,0.0162,0.0212,0.022,0.0131,0.0131,0.0132,0.0132,0,0.0018,0.0043,0.0046,0.0077,0.0091,0.0103,0.0123,0.0125,0.0139,0.0152,0.0148,0.0134,0.0136,0.0125,0.0122,0.0131,0.0162,0.0152,0.0162,0.0161,0.0214,0.0223,0.0128,0.0129,0.013,0.013,0,0,-0.0014,0.0039,0.0039,0.0055,0.0087,0.0098,0.0096,0.0105,0.0107,0.0117,0.0122,0.0101,0.0121,0.0117,0.0112,0.0126,0.017,0.0155,0.0157,0.0202,0.0257,0.0178,0.0181,0.0168,0.0169,0.017,0.0288,0,-0.0026,0.0003,0.0033,0.0046,0.006,0.008,0.008,0.0092,0.0099,0.0101,0.0096,0.0104,0.0108,0.0118,0.013,0.0156,0.0192,0.0141,0.0255,0.0259,0.0186,0.0187,0.0174,0.0295,0.0297,0.0299,0.03,0,-0.0035,-0.0011,0.0012,0.0047,0.0051,0.0065,0.0071,0.007,0.0074,0.0089,0.0097,0.0113,0.0128,0.0138,0.0203,0.0178,0.0233,0.0256,0.0261,0.0211,0.0195,0.0296,0.0316,0.0315,0.0314,0.0313,0.0312,0,-0.0066,-0.0031,-0.0011,0.0002,0.0041,0.0052,0.0058,0.0071,0.0063,0.0089,0.0104,0.013,0.0155,0.0207,0.0254,0.0252,0.033,0.0326,0.0315,0.0311,0.0367,0.0363,0.0402,0.0402,0.0402,0.0401,0.0401,0,-0.0083,-0.0072,-0.0019,-0.0008,0.0012,0.0039,0.0049,0.006,0.0063,0.0061,0.0103,0.0113,0.0181,0.0221,0.0269,0.0306,0.0349,0.0328,0.033,0.0348,0.0342,0.0374,0.0369,0.0406,0.0405,0.0404,0.0403,0,-0.0111,-0.0078,-0.0055,-0.001,0.0008,0.0017,0.0044,0.004,0.0059,0.0058,0.0075,0.012,0.0177,0.0226,0.0313,0.0323,0.0363,0.0377,0.0409,0.041,0.0342,0.0334,0.0394,0.0392,0.0391,0.0389,0.0388,0,-0.0113,-0.0102,-0.0058,-0.0037,-0.0008,0.0014,0.003,0.0042,0.0044,0.0053,0.0055,0.0107,0.0144,0.0212,0.0258,0.0338,0.034,0.0388,0.0356,0.0341,0.0339,0.0333,0.0328,0.0385,0.0385,0.0384,0.0384,0,-0.0126,-0.0115,-0.01,-0.005,-0.0019,0.0002,0.0029,0.0029,0.0036,0.0043,0.0054,0.008,0.0132,0.0186,0.0246,0.0295,0.0358,0.0372,0.0376,0.0346,0.0332,0.0329,0.0326,0.0378,0.0379,0.038,0.038,0,-0.014,-0.0131,-0.0104,-0.0061,-0.0031,-0.0,0.0012,0.0032,0.0031,0.0043,0.0041,0.0083,0.0118,0.0163,0.0202,0.0243,0.0259,0.0286,0.0296,0.0303,0.021,0.0174,0.0184,0,0,0,0,0,-0.0145,-0.0129,-0.0109,-0.0053,-0.003,-0.0004,0.0017,0.0025,0.0037,0.0041,0.0039,0.0076,0.0114,0.0133,0.0164,0.0174,0.0268,0.021,0.0306,0.0347,0.0353,0.0248,0,0,0,0,0,0,-0.014,-0.0127,-0.0116,-0.0061,-0.0022,0.0011,0.0025,0.0032,0.0045,0.005,0.0077,0.0075,0.0124,0.01,0.0163,0.0171,0.0234,0.0228,0.0229,0.0343,0.0349,0.0354,0.0249,0,0,0,0,0]},{"header":{"parameterUnit":"m.s-1","parameterCategory":2,"la1":30.2991,"la2":30.254,"lo1":-89.0895,"lo2":-89.0444,"dx":0.0017,"dy":0.0017,"nx":28,"ny":28,"refTime":"2023-01-14T03:00:00:Z","depth":"4","parameterNumber":3,"parameterNumberName":"V-component_of_CURRENTS"},"data":[0,0,0,0,0,0,0,0,0,0,0,0,0,0,0,0,0,0,0,0,0,0,0,0,0,0,0,0,0,0,0,0,0,0,0,0,0,0,0,0,0,0,0,0,0,0,0,0,0,0,0,0,0,0,0,0,0,0,0.0365,0.0365,0,0.034,0.0339,0.0339,0.0307,0.0306,0.0306,0.0306,0.0301,0.0301,0.0301,0,0,0,0,0,0,0,0,0,0,0,0,0,0.037,0.037,0.0365,0.0365,0.0365,0.034,0.0339,0.0338,0.0307,0.0306,0.0306,0.0306,0.0301,0.0301,0.0301,0,0,0,0,0,0,0,0,0,0,0,0,0,0.0356,0.037,0.0365,0.0348,0.0347,0.034,0.0339,0.0338,0.0307,0.0306,0.0306,0.0306,0.0301,0.0301,0.0301,0.031,0,0,0.0302,0.0302,0,0,0,0,0,0,0,0,0.0357,0.0355,0.0351,0.0349,0.0348,0.0328,0.0339,0.0331,0.0307,0.0319,0.0306,0.0306,0.0314,0.0313,0.0305,0.031,0.031,0.0302,0.0302,0.0302,0.0302,0,0,0,0,0,0,0,0.0358,0.0356,0.0352,0.0351,0.0349,0.0336,0.0334,0.0337,0.0317,0.0318,0.0316,0.0318,0.0313,0.0305,0.0305,0.031,0.0302,0.0302,0.0302,0.0302,0.0297,0.0297,0,0,0,0,0,0,0.0368,0.0357,0.0353,0.0352,0.0354,0.0337,0.0334,0.0333,0.0317,0.0315,0.0318,0.0317,0.0305,0.0305,0.0305,0.0298,0.0302,0.0302,0.0302,0.0297,0.0297,0.0297,0,0,0,0,0,0,0.0368,0.0367,0.0354,0.0356,0.0354,0.0337,0.0336,0.0332,0.0328,0.0317,0.0315,0.0319,0.0305,0.0304,0.0318,0.0298,0.0302,0.0302,0.0298,0.0297,0.0297,0.0295,0,0,0,0,0,0,0.0368,0.0367,0.0365,0.0357,0.0354,0.034,0.0337,0.0332,0.0331,0.0328,0.0317,0.0316,0.0304,0.0318,0.0318,0.0298,0.0302,0.0298,0.0298,0.0297,0.0296,0.0295,0.0294,0,0,0,0,0,0.0368,0.034,0.0365,0.0364,0.0353,0.034,0.0337,0.0322,0.0332,0.032,0.033,0.0316,0.0314,0.0319,0.0319,0.0299,0.0298,0.0298,0.0297,0.0296,0.0295,0.0294,0,0,0,0,0,0,0.0331,0.0335,0.0361,0.0336,0.0347,0.0336,0.0317,0.033,0.0328,0.0332,0.033,0.0329,0.0326,0.0321,0.0327,0.0295,0.0297,0.0297,0.0296,0.0295,0.0295,0.0279,0.0303,0,0,0,0,0,0.0332,0.0322,0.0334,0.0324,0.0323,0.0334,0.0328,0.0332,0.0333,0.0331,0.0335,0.0333,0.0323,0.0319,0.0313,0.031,0.0311,0.0292,0.0291,0.029,0.0277,0.0258,0.0254,0.0295,0.0295,0.0295,0,0,0.032,0.0322,0.0319,0.0319,0.0323,0.032,0.0327,0.032,0.0318,0.0333,0.0332,0.0338,0.0324,0.0312,0.0308,0.0307,0.0289,0.029,0.0289,0.0276,0.0257,0.0252,0.0249,0.0295,0.0295,0.0295,0,0,0.0299,0.0294,0.0289,0.0297,0.0311,0.0304,0.031,0.0317,0.0312,0.0329,0.0328,0.0324,0.033,0.0301,0.0289,0.0283,0.0289,0.0286,0.0265,0.0247,0.0243,0.024,0.0277,0.0276,0.0281,0.0281,0.0281,0,0.029,0.0285,0.0286,0.0293,0.0288,0.0302,0.0299,0.0294,0.0312,0.0302,0.0326,0.0315,0.0311,0.027,0.0271,0.0277,0.0296,0.0271,0.0246,0.0242,0.0238,0.0277,0.0276,0.0281,0.0281,0.0281,0.0281,0,0.0279,0.0279,0.0268,0.0283,0.0279,0.0267,0.0273,0.0269,0.0278,0.0279,0.0264,0.0271,0.026,0.0254,0.0266,0.023,0.0267,0.0252,0.0247,0.0234,0.0276,0.0276,0.0281,0.0281,0.0281,0.0281,0,0,0.0235,0.0255,0.0254,0.0264,0.0267,0.0259,0.0244,0.0219,0.0211,0.0222,0.0206,0.019,0.0208,0.0196,0.0205,0.0188,0.0201,0.0219,0.0218,0.0256,0.0214,0.0192,0.019,0.0192,0.0191,0.019,0.0269,0,0.0224,0.0236,0.0237,0.0233,0.0231,0.0226,0.0215,0.0205,0.0197,0.0188,0.0166,0.0178,0.018,0.0207,0.0176,0.0199,0.0194,0.0184,0.022,0.0221,0.0201,0.0185,0.0186,0.0269,0.0269,0.0268,0.0268,0,0.0207,0.0216,0.0222,0.0217,0.0212,0.0215,0.0183,0.018,0.0156,0.017,0.0154,0.016,0.0146,0.0162,0.0156,0.0161,0.0186,0.0197,0.02,0.017,0.0195,0.0274,0.0268,0.0268,0.0268,0.0268,0.0268,0,0.0185,0.0188,0.0188,0.0192,0.0199,0.0193,0.019,0.0177,0.017,0.0182,0.0203,0.0165,0.02,0.0177,0.0198,0.0196,0.0199,0.0196,0.0195,0.0197,0.0197,0.02,0.0181,0.0181,0.0181,0.018,0.018,0,0.0159,0.0156,0.0188,0.0193,0.0184,0.0203,0.0191,0.0196,0.0201,0.018,0.0214,0.0202,0.021,0.0202,0.0198,0.0196,0.02,0.0186,0.0196,0.0203,0.0204,0.02,0.0202,0.0183,0.0183,0.0182,0.0182,0,0.0142,0.0164,0.0161,0.0176,0.0184,0.0188,0.0204,0.0188,0.0241,0.0221,0.0242,0.0258,0.0266,0.026,0.0255,0.0228,0.0212,0.0213,0.0259,0.0273,0.0235,0.0235,0.0224,0.0223,0.0223,0.0223,0.0222,0,0.0134,0.014,0.0154,0.0152,0.0163,0.0178,0.0176,0.0212,0.0191,0.0221,0.0193,0.0241,0.0236,0.0237,0.0225,0.0232,0.0219,0.0242,0.0189,0.0218,0.023,0.0231,0.0232,0.0221,0.0221,0.0221,0.0221,0,0.0093,0.0105,0.0097,0.0116,0.0119,0.0111,0.0112,0.0115,0.0131,0.0175,0.0165,0.0181,0.0198,0.02,0.0238,0.0215,0.0231,0.0237,0.0237,0.0188,0.0215,0.0228,0.0229,0.0219,0.022,0.022,0.022,0,0.0036,0.0026,0.0025,0.0049,0.0047,0.0037,0.0056,0.0042,0.0053,0.0094,0.0071,0.0126,0.0161,0.019,0.018,0.0201,0.0191,0.0184,0.0187,0.0189,0.0135,0.0161,0.0149,0,0,0,0,0,-0.003,-0.0039,-0.0043,-0.0043,-0.0034,-0.0023,-0.0013,0.0005,0.0033,0.0017,0.0053,0.0057,0.01,0.0122,0.0137,0.0151,0.0184,0.0166,0.0174,0.021,0.0212,0.0148,0,0,0,0,0,0,-0.0091,-0.011,-0.0076,-0.0104,-0.0106,-0.0119,-0.0098,-0.0075,-0.0076,-0.0031,-0.0003,0.0035,0.0081,0.0087,0.0127,0.0135,0.0136,0.0197,0.0197,0.0209,0.0211,0.0212,0.0147,0,0,0,0,0]}]]